This demonstration page uses our WeatherBlox Daily Observations layout. Learn more.

Left ArrowRight Arrow

38.80484, -77.04692

Hourly Observations for April 12, 2021

Temp ( °F °C ) Dew Point ( °F °C ) Humidity (%) Winds ( mph kmh ) Pressure ( in mb ) Visibility ( mi km ) Precip ( " mm )
12:52 am 00:52 Cloudy 64 17.8 51 10.6 63 63 N 10 17 29.58 1002 10 16 N/A
1:52 am 01:52 Cloudy 64 17.8 53 11.7 68 68 NNE 10 17 29.59 1002 10 16 N/A
2:52 am 02:52 Cloudy 62 16.7 53 11.7 73 73 N 12 19 29.60 1002 10 16 N/A
3:52 am 03:52 Mostly Cloudy 60 15.6 53 11.7 78 78 N 12 19 29.61 1003 10 16 N/A
4:52 am 04:52 Mostly Cloudy 59 15 54 12.2 83 83 NNE 9 15 29.62 1003 10 16 N/A
5:52 am 05:52 Mostly Cloudy 57 13.9 54 12.2 90 90 NE 9 15 29.64 1004 10 16 N/A
5:56 am 05:56 Mostly Cloudy 57 13.9 54 12.2 90 90 ENE 9 15 29.64 1004 10 16 N/A
6:49 am 06:49 Mostly Cloudy 55 13 52 11 88 88 NE 10 17 29.65 1004 10 16 N/A
6:52 am 06:52 Mostly Cloudy 56 13.3 52 11.1 87 87 NE 10 17 29.65 1004 10 16 N/A
7:52 am 07:52 Mostly Cloudy 56 13.3 52 11.1 87 87 ENE 8 13 29.67 1005 10 16 N/A
8:52 am 08:52 Cloudy 55 12.8 51 10.6 87 87 ENE 10 17 29.67 1005 10 16 N/A
9:52 am 09:52 Cloudy 58 14.4 51 10.6 78 78 N 5 7 29.71 1006 10 16 N/A
10:52 am 10:52 Cloudy 58 14.4 51 10.6 78 78 ENE 9 15 29.72 1006 10 16 N/A
11:04 am 11:04 Cloudy 59 15 51 10.6 75 75 NE 10 17 29.72 1006 10 16 N/A
11:52 am 11:52 Mostly Cloudy 60 15.6 51 10.6 72 72 NE 10 17 29.72 1006 10 16 N/A
12:31 pm 12:31 Cloudy 58 14.4 50 10 75 75 NE 12 19 29.73 1007 10 16 N/A
12:52 pm 12:52 Mostly Cloudy with Light Rain 57 13.9 50 10 78 78 NE 12 19 29.73 1007 9 14 0.00 0.00
1:52 pm 13:52 Cloudy 57 13.9 50 10 78 78 ENE 9 15 29.74 1007 10 16 0.01 0.25
2:52 pm 14:52 Cloudy 58 14.4 50 10 75 75 ENE 9 15 29.74 1007 10 16 0.00 0.00
3:52 pm 15:52 Mostly Cloudy 61 16.1 50 10 67 67 ENE 9 15 29.73 1007 10 16 0.00 0.00
4:52 pm 16:52 Mostly Cloudy 59 15 49 9.4 69 69 NE 8 13 29.75 1008 10 16 N/A
5:52 pm 17:52 Cloudy 58 14.4 49 9.4 72 72 ENE 10 17 29.78 1008 10 16 N/A
6:52 pm 18:52 Mostly Cloudy 57 13.9 49 9.4 74 74 E 12 19 29.80 1009 10 16 N/A
7:52 pm 19:52 Cloudy 56 13.3 48 8.9 75 75 ENE 10 17 29.85 1011 10 16 N/A
8:26 pm 20:26 Cloudy with Light Rain 54 12.2 48 8.9 80 80 ENE 12 19 29.86 1011 9 14 0.00 0.00
8:37 pm 20:37 Cloudy with Light Rain 54 12.2 48 8.9 80 80 E 9 15 29.87 1012 8 13 0.01 0.25
8:52 pm 20:52 Cloudy 53 11.7 48 8.9 83 83 E 9 15 29.88 1012 10 16 0.01 0.25
9:52 pm 21:52 Cloudy 53 11.7 46 7.8 77 77 NE 10 17 29.93 1014 10 16 N/A
10:33 pm 22:33 Cloudy with Light Rain 51 10.6 46 7.8 83 83 E 9 15 29.93 1014 7 11 0.05 1.27
10:52 pm 22:52 Cloudy with Light Rain 51 10.6 46 7.8 83 83 ENE 7 11 29.93 1014 10 16 0.06 1.52
11:52 pm 23:52 Cloudy 51 10.6 46 7.8 83 83 NE 5 7 29.94 1014 10 16 0.00 0.00

Powered by AerisWeather